Time,TemperatureF,DewpointF,PressureIn,WindDirection,WindDirectionDegrees,WindSpeedMPH,WindSpeedGustMPH,Humidity,HourlyPrecipIn,Conditions,Clouds,dailyrainin,SoftwareType,DateUTC
2013-09-24 00:02:00,59.6,56.4,29.88,SSW,203,0.0,0.0,89,0.00,,,0.00,WeatherDisplay:10.37,2013-09-24 05:02:00,
2013-09-24 00:07:00,59.5,56.3,29.88,SSW,203,0.0,0.0,89,0.00,,,0.00,WeatherDisplay:10.37,2013-09-24 05:07:00,
2013-09-24 00:12:00,59.4,56.2,29.88,SSW,203,0.0,0.0,89,0.00,,,0.00,WeatherDisplay:10.37,2013-09-24 05:12:00,
2013-09-24 00:17:00,59.4,56.2,29.88,SSW,203,0.0,0.0,89,0.00,,,0.00,WeatherDisplay:10.37,2013-09-24 05:17:00,
2013-09-24 00:22:00,59.3,56.1,29.88,SSW,203,0.0,0.0,89,0.00,,,0.00,WeatherDisplay:10.37,2013-09-24 05:22:00,
2013-09-24 00:27:00,59.1,55.9,29.87,SSW,203,0.0,0.0,89,0.00,,,0.00,WeatherDisplay:10.37,2013-09-24 05:27:00,
2013-09-24 00:32:00,59.0,56.1,29.87,SSE,167,0.0,0.0,90,0.00,,,0.00,WeatherDisplay:10.37,2013-09-24 05:32:00,
2013-09-24 00:37:00,59.1,56.2,29.87,SE,136,0.0,0.0,90,0.00,,,0.00,WeatherDisplay:10.37,2013-09-24 05:37:00,
2013-09-24 00:42:00,59.2,56.3,29.87,SE,136,0.0,0.0,90,0.00,,,0.00,WeatherDisplay:10.37,2013-09-24 05:42:00,
2013-09-24 00:47:00,59.1,56.2,29.87,SE,136,0.0,0.0,90,0.00,,,0.00,WeatherDisplay:10.37,2013-09-24 05:47:00,
2013-09-24 00:52:00,59.0,56.1,29.87,SE,136,0.0,0.0,90,0.00,,,0.00,WeatherDisplay:10.37,2013-09-24 05:52:00,
2013-09-24 00:58:00,58.9,56.0,29.87,SE,136,0.0,0.0,90,0.00,,,0.00,WeatherDisplay:10.37,2013-09-24 05:58:00,
2013-09-24 01:03:00,58.8,56.2,29.87,SE,137,0.0,0.0,91,0.00,,,0.00,WeatherDisplay:10.37,2013-09-24 06:03:00,
2013-09-24 01:08:00,58.9,56.3,29.87,SE,128,0.0,0.0,91,0.00,,,0.00,WeatherDisplay:10.37,2013-09-24 06:08:00,
2013-09-24 01:13:00,59.1,56.2,29.86,ESE,108,0.0,0.0,90,0.00,,,0.00,WeatherDisplay:10.37,2013-09-24 06:13:00,
2013-09-24 01:18:00,59.1,56.2,29.87,ESE,108,0.0,0.0,90,0.00,,,0.00,WeatherDisplay:10.37,2013-09-24 06:18:00,
2013-09-24 01:23:00,58.9,56.0,29.86,ESE,108,0.0,0.0,90,0.00,,,0.00,WeatherDisplay:10.37,2013-09-24 06:23:00,
2013-09-24 01:28:00,58.9,56.3,29.86,ESE,108,0.0,1.1,91,0.00,,,0.00,WeatherDisplay:10.37,2013-09-24 06:28:00,
2013-09-24 01:33:00,59.0,56.1,29.86,ESE,108,0.0,0.0,90,0.00,,,0.00,WeatherDisplay:10.37,2013-09-24 06:33:00,
2013-09-24 01:38:00,58.9,56.0,29.86,ESE,108,0.0,0.0,90,0.00,,,0.00,WeatherDisplay:10.37,2013-09-24 06:38:00,
2013-09-24 01:43:00,58.8,55.9,29.86,ESE,108,0.0,0.0,90,0.00,,,0.00,WeatherDisplay:10.37,2013-09-24 06:43:00,
2013-09-24 01:48:00,58.7,55.8,29.86,ESE,108,0.0,0.0,90,0.00,,,0.00,WeatherDisplay:10.37,2013-09-24 06:48:00,
2013-09-24 01:53:00,58.6,56.0,29.86,East,87,0.0,0.0,91,0.00,,,0.00,WeatherDisplay:10.37,2013-09-24 06:53:00,
2013-09-24 01:58:00,58.8,56.2,29.86,East,87,0.0,0.0,91,0.00,,,0.00,WeatherDisplay:10.37,2013-09-24 06:58:00,
2013-09-24 02:03:00,59.0,56.1,29.86,East,87,0.0,0.0,90,0.00,,,0.00,WeatherDisplay:10.37,2013-09-24 07:03:00,
2013-09-24 02:08:00,59.1,56.2,29.86,East,88,0.0,0.0,90,0.00,,,0.00,WeatherDisplay:10.37,2013-09-24 07:08:00,
2013-09-24 02:13:00,59.1,56.2,29.86,East,88,0.0,0.0,90,0.00,,,0.00,WeatherDisplay:10.37,2013-09-24 07:13:00,
2013-09-24 02:18:00,59.0,56.1,29.86,East,87,0.0,0.0,90,0.00,,,0.00,WeatherDisplay:10.37,2013-09-24 07:18:00,
2013-09-24 02:23:00,58.9,56.0,29.86,East,87,0.0,0.0,90,0.00,,,0.00,WeatherDisplay:10.37,2013-09-24 07:23:00,
2013-09-24 02:28:00,58.7,55.8,29.86,East,87,0.0,0.0,90,0.00,,,0.00,WeatherDisplay:10.37,2013-09-24 07:28:00,
2013-09-24 02:33:00,58.6,56.0,29.86,South,176,0.0,0.0,91,0.00,,,0.00,WeatherDisplay:10.37,2013-09-24 07:33:00,
2013-09-24 02:38:00,58.4,55.8,29.86,South,176,0.0,0.0,91,0.00,,,0.00,WeatherDisplay:10.37,2013-09-24 07:38:00,
2013-09-24 02:43:00,58.3,55.7,29.86,South,177,0.0,0.0,91,0.00,,,0.00,WeatherDisplay:10.37,2013-09-24 07:43:00,
2013-09-24 02:48:00,58.1,55.5,29.85,South,177,0.0,0.0,91,0.00,,,0.00,WeatherDisplay:10.37,2013-09-24 07:48:00,
2013-09-24 02:53:00,58.1,55.8,29.85,South,177,0.0,0.0,92,0.00,,,0.00,WeatherDisplay:10.37,2013-09-24 07:53:00,
2013-09-24 02:58:00,58.0,55.7,29.85,South,177,0.0,0.0,92,0.00,,,0.00,WeatherDisplay:10.37,2013-09-24 07:58:00,
2013-09-24 03:03:00,58.0,55.7,29.85,South,178,0.0,0.0,92,0.00,,,0.00,WeatherDisplay:10.37,2013-09-24 08:03:00,
2013-09-24 03:08:00,58.1,55.8,29.85,South,177,0.0,0.0,92,0.00,,,0.00,WeatherDisplay:10.37,2013-09-24 08:08:00,
2013-09-24 03:13:00,58.2,55.9,29.85,ESE,120,0.0,0.0,92,0.00,,,0.00,WeatherDisplay:10.37,2013-09-24 08:13:00,
2013-09-24 03:18:00,58.3,56.0,29.85,ESE,120,0.1,1.1,92,0.00,,,0.00,WeatherDisplay:10.37,2013-09-24 08:18:00,
2013-09-24 03:23:00,58.3,56.0,29.85,ESE,120,0.0,0.0,92,0.00,,,0.00,WeatherDisplay:10.37,2013-09-24 08:23:00,
2013-09-24 03:28:00,58.2,55.9,29.85,ESE,120,0.0,0.0,92,0.00,,,0.00,WeatherDisplay:10.37,2013-09-24 08:28:00,
2013-09-24 03:33:00,58.1,55.8,29.85,SSE,158,0.0,0.0,92,0.00,,,0.00,WeatherDisplay:10.37,2013-09-24 08:33:00,
2013-09-24 03:38:00,58.0,55.7,29.85,South,180,0.1,1.1,92,0.00,,,0.00,WeatherDisplay:10.37,2013-09-24 08:38:00,
2013-09-24 03:43:00,57.9,55.6,29.85,South,186,0.0,0.0,92,0.00,,,0.00,WeatherDisplay:10.37,2013-09-24 08:43:00,
2013-09-24 03:48:00,57.8,55.5,29.85,South,186,0.0,0.0,92,0.00,,,0.00,WeatherDisplay:10.37,2013-09-24 08:48:00,
2013-09-24 03:53:00,57.6,55.3,29.85,South,186,0.0,0.0,92,0.00,,,0.00,WeatherDisplay:10.37,2013-09-24 08:53:00,
2013-09-24 03:58:00,57.4,55.4,29.85,South,186,0.0,0.0,93,0.00,,,0.00,WeatherDisplay:10.37,2013-09-24 08:58:00,
2013-09-24 04:03:00,57.4,55.4,29.84,South,184,0.0,0.0,93,0.00,,,0.00,WeatherDisplay:10.37,2013-09-24 09:03:00,
2013-09-24 04:08:00,57.3,55.3,29.84,SSE,166,0.0,0.0,93,0.00,,,0.00,WeatherDisplay:10.37,2013-09-24 09:08:00,
2013-09-24 04:14:00,57.3,55.3,29.84,SSE,166,0.0,0.0,93,0.00,,,0.00,WeatherDisplay:10.37,2013-09-24 09:14:00,
2013-09-24 04:19:00,57.3,55.3,29.84,SSE,166,0.0,0.0,93,0.00,,,0.00,WeatherDisplay:10.37,2013-09-24 09:19:00,
2013-09-24 04:24:00,57.4,55.7,29.84,SSE,158,0.0,0.0,94,0.00,,,0.00,WeatherDisplay:10.37,2013-09-24 09:24:00,
2013-09-24 04:29:00,57.5,55.8,29.84,SSE,152,0.0,0.0,94,0.00,,,0.00,WeatherDisplay:10.37,2013-09-24 09:29:00,
2013-09-24 04:34:00,57.6,55.9,29.84,East,98,0.3,1.1,94,0.00,,,0.00,WeatherDisplay:10.37,2013-09-24 09:34:00,
2013-09-24 04:39:00,57.9,55.9,29.83,ESE,103,0.4,1.1,93,0.00,,,0.00,WeatherDisplay:10.37,2013-09-24 09:39:00,
2013-09-24 04:44:00,58.3,56.3,29.84,SE,134,0.2,1.1,93,0.00,,,0.00,WeatherDisplay:10.37,2013-09-24 09:44:00,
2013-09-24 04:49:00,58.4,56.4,29.84,ESE,117,0.3,1.1,93,0.01,RA,,0.01,WeatherDisplay:10.37,2013-09-24 09:49:00,
2013-09-24 04:54:00,58.4,56.4,29.84,SSE,159,0.2,1.1,93,0.02,RA,,0.02,WeatherDisplay:10.37,2013-09-24 09:54:00,
2013-09-24 04:59:00,58.4,56.7,29.83,ESE,114,0.0,0.0,94,0.02,RA,,0.02,WeatherDisplay:10.37,2013-09-24 09:59:00,
2013-09-24 05:04:00,58.4,56.7,29.83,South,184,0.0,0.0,94,0.02,,,0.02,WeatherDisplay:10.37,2013-09-24 10:04:00,
2013-09-24 05:09:00,58.4,56.7,29.83,SSW,197,0.8,2.3,94,0.02,,,0.02,WeatherDisplay:10.37,2013-09-24 10:09:00,
2013-09-24 05:14:00,58.4,56.7,29.83,SSW,208,0.0,0.0,94,0.02,,,0.02,WeatherDisplay:10.37,2013-09-24 10:14:00,
2013-09-24 05:19:00,58.3,56.6,29.83,SSW,195,0.3,1.1,94,0.02,,,0.02,WeatherDisplay:10.37,2013-09-24 10:19:00,
2013-09-24 05:24:00,58.3,56.6,29.83,SSE,152,1.5,3.5,94,0.02,,,0.02,WeatherDisplay:10.37,2013-09-24 10:24:00,
2013-09-24 05:29:00,58.3,56.9,29.83,SW,214,0.0,1.1,95,0.02,,,0.02,WeatherDisplay:10.37,2013-09-24 10:29:00,
2013-09-24 05:34:00,58.3,56.9,29.83,South,172,1.1,3.0,95,0.02,,,0.02,WeatherDisplay:10.37,2013-09-24 10:34:00,
2013-09-24 05:39:00,58.3,56.9,29.83,SE,128,0.0,1.0,95,0.02,,,0.02,WeatherDisplay:10.37,2013-09-24 10:39:00,
2013-09-24 05:44:00,58.3,56.9,29.83,SE,127,0.0,0.0,95,0.02,,,0.02,WeatherDisplay:10.37,2013-09-24 10:44:00,
2013-09-24 05:49:00,58.1,56.7,29.83,SE,141,0.0,0.0,95,0.01,,,0.02,WeatherDisplay:10.37,2013-09-24 10:49:00,
2013-09-24 05:54:00,58.0,56.6,29.83,SE,143,0.0,0.0,95,0.00,,,0.02,WeatherDisplay:10.37,2013-09-24 10:54:00,
2013-09-24 05:59:00,57.9,56.5,29.83,SSE,148,0.0,0.0,95,0.00,,,0.02,WeatherDisplay:10.37,2013-09-24 10:59:00,
2013-09-24 06:04:00,57.7,56.3,29.83,SSE,148,0.0,0.0,95,0.00,,,0.02,WeatherDisplay:10.37,2013-09-24 11:04:00,
2013-09-24 06:09:00,57.7,56.3,29.83,SSW,199,0.0,0.0,95,0.00,,,0.02,WeatherDisplay:10.37,2013-09-24 11:09:00,
2013-09-24 06:14:00,57.8,57.8,29.84,SW,219,0.0,0.0,100,0.00,,,0.02,WeatherDisplay:10.37,2013-09-24 11:14:00,
2013-09-24 06:19:00,57.9,57.9,29.83,SE,145,0.5,1.1,100,0.00,,,0.02,WeatherDisplay:10.37,2013-09-24 11:19:00,
2013-09-24 06:24:00,57.8,57.8,29.83,SSE,162,0.0,0.0,100,0.00,,,0.02,WeatherDisplay:10.37,2013-09-24 11:24:00,
2013-09-24 06:29:00,57.7,57.7,29.84,SSE,149,0.0,0.0,100,0.00,,,0.02,WeatherDisplay:10.37,2013-09-24 11:29:00,
2013-09-24 06:34:00,57.6,57.6,29.84,SSE,150,0.0,0.0,100,0.00,,,0.02,WeatherDisplay:10.37,2013-09-24 11:34:00,
2013-09-24 06:39:00,57.5,57.5,29.83,SSE,149,0.0,0.0,100,0.00,,,0.02,WeatherDisplay:10.37,2013-09-24 11:39:00,
2013-09-24 06:45:00,57.5,57.5,29.83,South,189,0.0,0.0,100,0.00,,,0.02,WeatherDisplay:10.37,2013-09-24 11:45:00,
2013-09-24 06:50:00,57.4,57.4,29.83,SSE,161,0.0,0.0,100,0.00,,,0.02,WeatherDisplay:10.37,2013-09-24 11:50:00,
2013-09-24 06:55:00,57.3,57.3,29.83,SSE,159,0.0,0.0,100,0.00,,,0.02,WeatherDisplay:10.37,2013-09-24 11:55:00,
2013-09-24 07:00:00,57.2,57.2,29.83,SSE,159,0.0,0.0,100,0.00,CLR,,0.02,WeatherDisplay:10.37,2013-09-24 12:00:00,
2013-09-24 07:05:00,57.1,57.1,29.83,SSE,153,0.0,0.0,100,0.00,CLR,,0.02,WeatherDisplay:10.37,2013-09-24 12:05:00,
2013-09-24 07:10:00,57.1,57.1,29.83,SSE,153,0.0,0.0,100,0.00,CLR,,0.02,WeatherDisplay:10.37,2013-09-24 12:10:00,
2013-09-24 07:15:00,57.0,57.0,29.83,SSE,153,0.0,0.0,100,0.00,CLR,,0.02,WeatherDisplay:10.37,2013-09-24 12:15:00,
2013-09-24 07:20:00,57.2,57.2,29.83,SSE,153,0.0,0.0,100,0.00,CLR,,0.02,WeatherDisplay:10.37,2013-09-24 12:20:00,
2013-09-24 07:25:00,57.2,57.2,29.83,SSE,153,0.0,0.0,100,0.00,CLR,,0.02,WeatherDisplay:10.37,2013-09-24 12:25:00,
2013-09-24 07:30:00,57.4,57.4,29.83,South,187,0.0,0.0,100,0.00,CLR,,0.02,WeatherDisplay:10.37,2013-09-24 12:30:00,
2013-09-24 07:35:00,57.6,57.6,29.83,South,187,0.0,0.0,100,0.00,CLR,,0.02,WeatherDisplay:10.37,2013-09-24 12:35:00,
2013-09-24 07:40:00,57.9,57.9,29.83,South,188,0.0,0.0,100,0.00,CLR,,0.02,WeatherDisplay:10.37,2013-09-24 12:40:00,
2013-09-24 07:45:00,58.3,58.3,29.83,South,183,0.0,0.0,100,0.00,CLR,,0.02,WeatherDisplay:10.37,2013-09-24 12:45:00,
2013-09-24 07:50:00,58.8,58.8,29.83,South,170,0.0,0.0,100,0.00,CLR,,0.02,WeatherDisplay:10.37,2013-09-24 12:50:00,
2013-09-24 07:55:00,59.3,59.3,29.83,SSE,166,0.0,0.0,100,0.00,CLR,,0.02,WeatherDisplay:10.37,2013-09-24 12:55:00,
2013-09-24 08:00:00,59.9,59.9,29.83,SE,134,1.1,2.3,100,0.00,CLR,,0.02,WeatherDisplay:10.37,2013-09-24 13:00:00,
2013-09-24 08:05:00,60.2,60.2,29.83,SSE,163,0.1,1.1,100,0.00,CLR,,0.02,WeatherDisplay:10.37,2013-09-24 13:05:00,
2013-09-24 08:10:00,60.6,59.2,29.83,SSE,158,0.4,2.0,95,0.00,CLR,,0.02,WeatherDisplay:10.37,2013-09-24 13:10:00,
2013-09-24 08:15:00,61.1,59.7,29.82,SSW,207,0.0,1.1,95,0.00,CLR,,0.02,WeatherDisplay:10.37,2013-09-24 13:15:00,
2013-09-24 08:20:00,61.5,59.8,29.82,SE,141,0.2,3.5,94,0.00,CLR,,0.02,WeatherDisplay:10.37,2013-09-24 13:20:00,
2013-09-24 08:25:00,61.8,59.8,29.82,SE,141,0.3,2.3,93,0.00,CLR,,0.02,WeatherDisplay:10.37,2013-09-24 13:25:00,
2013-09-24 08:30:00,62.1,60.1,29.82,SSE,153,2.3,4.6,93,0.00,CLR,,0.02,WeatherDisplay:10.37,2013-09-24 13:30:00,
2013-09-24 08:35:00,62.4,60.0,29.82,SSE,155,0.0,1.1,92,0.00,CLR,,0.02,WeatherDisplay:10.37,2013-09-24 13:35:00,
2013-09-24 08:40:00,62.7,60.3,29.82,SW,219,1.1,2.3,92,0.00,CLR,,0.02,WeatherDisplay:10.37,2013-09-24 13:40:00,
2013-09-24 08:45:00,62.7,60.0,29.82,SSE,160,1.2,3.5,91,0.00,CLR,,0.02,WeatherDisplay:10.37,2013-09-24 13:45:00,
2013-09-24 08:50:00,62.9,60.2,29.82,SSE,163,2.0,4.6,91,0.00,CLR,,0.02,WeatherDisplay:10.37,2013-09-24 13:50:00,
2013-09-24 08:55:00,63.2,60.5,29.82,SSE,153,0.0,2.3,91,0.00,CLR,,0.02,WeatherDisplay:10.37,2013-09-24 13:55:00,
2013-09-24 09:01:00,63.7,60.7,29.82,SW,224,0.0,0.0,90,0.00,CLR,,0.02,WeatherDisplay:10.37,2013-09-24 14:01:00,
2013-09-24 09:06:00,64.1,60.8,29.82,West,280,0.5,1.1,89,0.00,CLR,,0.02,WeatherDisplay:10.37,2013-09-24 14:06:00,
2013-09-24 09:11:00,63.7,60.4,29.82,SW,219,2.0,2.3,89,0.00,CLR,,0.02,WeatherDisplay:10.37,2013-09-24 14:11:00,
2013-09-24 09:16:00,63.9,60.6,29.82,SW,229,0.0,0.0,89,0.00,CLR,,0.02,WeatherDisplay:10.37,2013-09-24 14:16:00,
2013-09-24 09:21:00,64.2,60.6,29.82,SW,215,0.5,1.1,88,0.00,CLR,,0.02,WeatherDisplay:10.37,2013-09-24 14:21:00,
2013-09-24 09:26:00,64.9,61.3,29.82,SW,224,0.7,2.3,88,0.00,CLR,,0.02,WeatherDisplay:10.37,2013-09-24 14:26:00,
2013-09-24 09:31:00,65.5,61.5,29.82,SW,219,1.3,3.0,87,0.00,CLR,,0.02,WeatherDisplay:10.37,2013-09-24 14:31:00,
2013-09-24 09:36:00,66.1,61.8,29.82,SSW,212,2.2,3.5,86,0.00,CLR,,0.02,WeatherDisplay:10.37,2013-09-24 14:36:00,
2013-09-24 09:41:00,66.6,61.9,29.82,SSW,198,1.7,5.0,85,0.00,CLR,,0.02,WeatherDisplay:10.37,2013-09-24 14:41:00,
2013-09-24 09:46:00,67.1,61.1,29.82,WSW,245,1.4,4.6,81,0.00,CLR,,0.02,WeatherDisplay:10.37,2013-09-24 14:46:00,
2013-09-24 09:51:00,67.5,61.1,29.82,WSW,256,1.7,4.0,80,0.00,CLR,,0.02,WeatherDisplay:10.37,2013-09-24 14:51:00,
2013-09-24 09:56:00,67.9,61.1,29.82,West,261,3.1,5.8,79,0.00,CLR,,0.02,WeatherDisplay:10.37,2013-09-24 14:56:00,
2013-09-24 10:01:00,68.3,61.5,29.82,SW,221,2.3,3.5,79,0.00,CLR,,0.02,WeatherDisplay:10.37,2013-09-24 15:01:00,
2013-09-24 10:06:00,68.7,60.5,29.82,WNW,287,3.7,11.5,75,0.00,CLR,,0.02,WeatherDisplay:10.37,2013-09-24 15:06:00,
2013-09-24 10:11:00,69.0,60.4,29.82,WSW,254,4.4,6.9,74,0.00,CLR,,0.02,WeatherDisplay:10.37,2013-09-24 15:11:00,
2013-09-24 10:16:00,69.4,60.4,29.82,SSW,198,5.7,10.4,73,0.00,CLR,,0.02,WeatherDisplay:10.37,2013-09-24 15:16:00,
2013-09-24 10:21:00,69.7,59.9,29.81,NW,325,2.8,8.1,71,0.00,CLR,,0.02,WeatherDisplay:10.37,2013-09-24 15:21:00,
2013-09-24 10:26:00,70.1,60.7,29.82,West,262,2.6,5.0,72,0.00,CLR,,0.02,WeatherDisplay:10.37,2013-09-24 15:26:00,
2013-09-24 10:31:00,70.1,59.9,29.81,SW,214,4.5,6.9,70,0.00,CLR,,0.02,WeatherDisplay:10.37,2013-09-24 15:31:00,
2013-09-24 10:36:00,70.3,60.4,29.81,WSW,256,0.6,3.5,71,0.00,CLR,,0.02,WeatherDisplay:10.37,2013-09-24 15:36:00,
2013-09-24 10:41:00,70.7,60.8,29.81,West,262,1.9,3.5,71,0.00,CLR,,0.02,WeatherDisplay:10.37,2013-09-24 15:41:00,
2013-09-24 10:46:00,70.9,59.4,29.81,WSW,238,1.8,3.5,67,0.00,CLR,,0.02,WeatherDisplay:10.37,2013-09-24 15:46:00,
2013-09-24 10:51:00,70.9,59.4,29.81,WNW,283,4.6,8.1,67,0.00,CLR,,0.02,WeatherDisplay:10.37,2013-09-24 15:51:00,
2013-09-24 10:56:00,71.1,58.7,29.81,SW,214,5.9,9.2,65,0.00,CLR,,0.02,WeatherDisplay:10.37,2013-09-24 15:56:00,
2013-09-24 11:01:00,71.2,60.5,29.81,SW,228,4.9,8.0,69,0.00,CLR,,0.02,WeatherDisplay:10.37,2013-09-24 16:01:00,
2013-09-24 11:06:00,71.4,59.4,29.81,WSW,238,2.5,3.5,66,0.00,CLR,,0.02,WeatherDisplay:10.37,2013-09-24 16:06:00,
2013-09-24 11:11:00,71.8,59.0,29.81,WSW,245,6.0,8.1,64,0.00,CLR,,0.02,WeatherDisplay:10.37,2013-09-24 16:11:00,
2013-09-24 11:16:00,72.2,59.8,29.81,West,278,2.1,3.5,65,0.00,CLR,,0.02,WeatherDisplay:10.37,2013-09-24 16:16:00,
2013-09-24 11:21:00,72.7,59.8,29.81,SW,235,6.2,10.4,64,0.00,CLR,,0.02,WeatherDisplay:10.37,2013-09-24 16:21:00,
2013-09-24 11:26:00,72.9,60.9,29.81,SW,219,1.6,3.5,66,0.00,CLR,,0.02,WeatherDisplay:10.37,2013-09-24 16:26:00,
2013-09-24 11:31:00,72.9,59.1,29.81,West,269,2.6,5.8,62,0.00,CLR,,0.02,WeatherDisplay:10.37,2013-09-24 16:31:00,
2013-09-24 11:36:00,73.1,58.8,29.81,WNW,293,2.0,4.6,61,0.00,CLR,,0.02,WeatherDisplay:10.37,2013-09-24 16:36:00,
2013-09-24 11:41:00,73.5,59.2,29.81,SSW,203,1.4,2.0,61,0.00,CLR,,0.02,WeatherDisplay:10.37,2013-09-24 16:41:00,
2013-09-24 11:46:00,73.6,58.9,29.81,West,281,3.1,4.0,60,0.00,CLR,,0.02,WeatherDisplay:10.37,2013-09-24 16:46:00,
2013-09-24 11:51:00,73.9,58.7,29.81,WSW,255,2.5,3.5,59,0.00,CLR,,0.02,WeatherDisplay:10.37,2013-09-24 16:51:00,
2013-09-24 11:56:00,73.9,57.2,29.81,West,274,5.7,9.2,56,0.00,CLR,,0.02,WeatherDisplay:10.37,2013-09-24 16:56:00,
2013-09-24 12:02:00,74.0,58.8,29.81,SSE,149,2.3,3.5,59,0.00,CLR,,0.02,WeatherDisplay:10.37,2013-09-24 17:02:00,
2013-09-24 12:07:00,74.0,57.3,29.81,West,268,6.1,8.0,56,0.00,CLR,,0.02,WeatherDisplay:10.37,2013-09-24 17:07:00,
2013-09-24 12:12:00,74.3,59.0,29.80,West,263,0.9,3.5,59,0.00,CLR,,0.02,WeatherDisplay:10.37,2013-09-24 17:12:00,
2013-09-24 12:17:00,74.6,59.3,29.80,WSW,238,1.2,3.5,59,0.00,CLR,,0.02,WeatherDisplay:10.37,2013-09-24 17:17:00,
2013-09-24 12:22:00,74.6,57.9,29.80,WSW,255,2.5,3.5,56,0.00,CLR,,0.02,WeatherDisplay:10.37,2013-09-24 17:22:00,
2013-09-24 12:27:00,74.7,58.5,29.80,West,276,3.1,8.1,57,0.00,CLR,,0.02,WeatherDisplay:10.37,2013-09-24 17:27:00,
2013-09-24 12:32:00,74.9,58.1,29.80,SW,235,5.7,10.4,56,0.00,CLR,,0.02,WeatherDisplay:10.37,2013-09-24 17:32:00,
2013-09-24 12:37:00,75.1,57.8,29.80,West,273,6.2,10.4,55,0.00,CLR,,0.02,WeatherDisplay:10.37,2013-09-24 17:37:00,
2013-09-24 12:42:00,74.8,58.1,29.80,West,281,4.7,6.9,56,0.00,CLR,,0.02,WeatherDisplay:10.37,2013-09-24 17:42:00,
2013-09-24 12:47:00,74.9,58.6,29.80,West,272,5.8,6.9,57,0.00,CLR,,0.02,WeatherDisplay:10.37,2013-09-24 17:47:00,
2013-09-24 12:52:00,75.0,59.7,29.80,WNW,298,4.2,6.9,59,0.00,CLR,,0.02,WeatherDisplay:10.37,2013-09-24 17:52:00,
2013-09-24 12:57:00,75.7,59.4,29.80,SW,232,3.6,11.0,57,0.00,CLR,,0.02,WeatherDisplay:10.37,2013-09-24 17:57:00,
2013-09-24 13:02:00,76.0,60.6,29.80,SW,234,1.1,3.5,59,0.00,CLR,,0.02,WeatherDisplay:10.37,2013-09-24 18:02:00,
2013-09-24 13:07:00,76.5,60.6,29.80,West,274,2.9,4.0,58,0.00,CLR,,0.02,WeatherDisplay:10.37,2013-09-24 18:07:00,
2013-09-24 13:12:00,76.2,59.4,29.80,NW,324,3.5,5.8,56,0.00,CLR,,0.02,WeatherDisplay:10.37,2013-09-24 18:12:00,
2013-09-24 13:17:00,76.4,60.5,29.80,West,273,2.2,3.5,58,0.00,CLR,,0.02,WeatherDisplay:10.37,2013-09-24 18:17:00,
2013-09-24 13:22:00,76.3,59.9,29.80,West,270,5.2,11.5,57,0.00,CLR,,0.02,WeatherDisplay:10.37,2013-09-24 18:22:00,
2013-09-24 13:27:00,76.2,59.9,29.80,West,264,2.2,3.5,57,0.00,CLR,,0.02,WeatherDisplay:10.37,2013-09-24 18:27:00,
2013-09-24 13:32:00,76.2,58.3,29.80,West,264,5.1,10.4,54,0.00,CLR,,0.02,WeatherDisplay:10.37,2013-09-24 18:32:00,
2013-09-24 13:37:00,75.8,59.0,29.80,WNW,300,1.7,5.8,56,0.00,CLR,,0.02,WeatherDisplay:10.37,2013-09-24 18:37:00,
2013-09-24 13:42:00,76.2,58.3,29.79,SW,225,8.2,11.5,54,0.00,CLR,,0.02,WeatherDisplay:10.37,2013-09-24 18:42:00,
2013-09-24 13:47:00,76.1,59.8,29.79,WSW,250,2.1,4.6,57,0.00,CLR,,0.02,WeatherDisplay:10.37,2013-09-24 18:47:00,
2013-09-24 13:52:00,76.4,59.0,29.79,West,263,2.3,3.5,55,0.00,CLR,,0.02,WeatherDisplay:10.37,2013-09-24 18:52:00,
2013-09-24 13:57:00,76.4,59.5,29.79,WNW,288,0.1,1.1,56,0.00,CLR,,0.02,WeatherDisplay:10.37,2013-09-24 18:57:00,
2013-09-24 14:02:00,76.6,57.7,29.79,WSW,250,5.5,8.1,52,0.00,CLR,,0.02,WeatherDisplay:10.37,2013-09-24 19:02:00,
2013-09-24 14:07:00,76.4,59.5,29.79,WNW,295,7.2,14.0,56,0.00,CLR,,0.02,WeatherDisplay:10.37,2013-09-24 19:07:00,
2013-09-24 14:12:00,75.9,59.6,29.79,NW,312,2.3,3.5,57,0.00,,,0.02,WeatherDisplay:10.37,2013-09-24 19:12:00,
2013-09-24 14:17:00,76.1,58.8,29.78,West,272,3.3,4.6,55,0.00,,,0.02,WeatherDisplay:10.37,2013-09-24 19:17:00,
2013-09-24 14:22:00,76.3,60.4,29.78,WSW,256,1.4,4.0,58,0.00,,,0.02,WeatherDisplay:10.37,2013-09-24 19:22:00,
2013-09-24 14:27:00,76.5,59.1,29.78,West,276,4.9,10.4,55,0.00,,,0.02,WeatherDisplay:10.37,2013-09-24 19:27:00,
2013-09-24 14:32:00,76.9,60.5,29.78,West,262,1.9,3.5,57,0.00,,,0.02,WeatherDisplay:10.37,2013-09-24 19:32:00,
2013-09-24 14:37:00,76.8,58.4,29.79,West,259,2.8,4.6,53,0.00,,,0.02,WeatherDisplay:10.37,2013-09-24 19:37:00,
2013-09-24 14:42:00,77.5,60.1,29.78,WSW,249,0.8,2.3,55,0.00,,,0.02,WeatherDisplay:10.37,2013-09-24 19:42:00,
2013-09-24 14:47:00,78.0,60.0,29.78,SW,229,2.2,3.5,54,0.00,,,0.02,WeatherDisplay:10.37,2013-09-24 19:47:00,
2013-09-24 14:52:00,77.6,60.2,29.78,NNE,27,2.2,4.0,55,0.00,,,0.02,WeatherDisplay:10.37,2013-09-24 19:52:00,
2013-09-24 14:57:00,77.5,60.1,29.78,West,266,1.5,3.5,55,0.00,,,0.02,WeatherDisplay:10.37,2013-09-24 19:57:00,
2013-09-24 15:02:00,77.7,60.8,29.78,WNW,293,1.6,3.0,56,0.00,,,0.02,WeatherDisplay:10.37,2013-09-24 20:02:00,
2013-09-24 15:07:00,76.9,60.5,29.78,West,277,1.1,3.5,57,0.00,,,0.02,WeatherDisplay:10.37,2013-09-24 20:07:00,
2013-09-24 15:12:00,76.8,59.9,29.78,West,264,3.4,5.8,56,0.00,,,0.02,WeatherDisplay:10.37,2013-09-24 20:12:00,
2013-09-24 15:17:00,76.7,61.3,29.78,WSW,257,0.4,1.0,59,0.00,,,0.02,WeatherDisplay:10.37,2013-09-24 20:17:00,
2013-09-24 15:22:00,78.1,60.6,29.78,WSW,238,3.0,4.6,55,0.00,,,0.02,WeatherDisplay:10.37,2013-09-24 20:22:00,
2013-09-24 15:28:00,78.0,59.5,29.78,WNW,299,1.6,5.8,53,0.00,,,0.02,WeatherDisplay:10.37,2013-09-24 20:28:00,
2013-09-24 15:33:00,77.6,60.7,29.78,West,270,1.5,3.5,56,0.00,,,0.02,WeatherDisplay:10.37,2013-09-24 20:33:00,
2013-09-24 15:38:00,78.4,59.9,29.78,WNW,295,3.5,5.8,53,0.00,,,0.02,WeatherDisplay:10.37,2013-09-24 20:38:00,
2013-09-24 15:43:00,78.4,60.4,29.78,WNW,285,5.5,8.1,54,0.00,,,0.02,WeatherDisplay:10.37,2013-09-24 20:43:00,
2013-09-24 15:48:00,77.7,59.7,29.78,NW,308,3.9,5.8,54,0.00,,,0.02,WeatherDisplay:10.37,2013-09-24 20:48:00,
2013-09-24 15:53:00,77.4,60.5,29.78,NNW,335,0.8,1.1,56,0.00,,,0.02,WeatherDisplay:10.37,2013-09-24 20:53:00,
2013-09-24 15:58:00,77.6,61.2,29.78,NW,318,4.6,6.9,57,0.00,,,0.02,WeatherDisplay:10.37,2013-09-24 20:58:00,
2013-09-24 16:03:00,76.4,59.5,29.78,West,270,1.2,3.5,56,0.00,,,0.02,WeatherDisplay:10.37,2013-09-24 21:03:00,
2013-09-24 16:08:00,76.1,60.2,29.78,West,277,2.0,3.5,58,0.00,,,0.02,WeatherDisplay:10.37,2013-09-24 21:08:00,
2013-09-24 16:13:00,75.5,60.6,29.78,WNW,301,2.3,4.6,60,0.00,,,0.02,WeatherDisplay:10.37,2013-09-24 21:13:00,
2013-09-24 16:18:00,75.0,60.6,29.79,NW,304,3.8,5.8,61,0.00,,,0.02,WeatherDisplay:10.37,2013-09-24 21:18:00,
2013-09-24 16:23:00,74.8,60.0,29.78,WNW,302,1.7,3.5,60,0.00,,,0.02,WeatherDisplay:10.37,2013-09-24 21:23:00,
2013-09-24 16:28:00,74.6,59.8,29.78,WNW,297,1.7,4.6,60,0.00,,,0.02,WeatherDisplay:10.37,2013-09-24 21:28:00,
2013-09-24 16:33:00,74.7,60.4,29.78,WNW,293,2.6,4.6,61,0.00,,,0.02,WeatherDisplay:10.37,2013-09-24 21:33:00,
2013-09-24 16:38:00,75.0,60.2,29.78,WNW,299,3.4,5.8,60,0.00,,,0.02,WeatherDisplay:10.37,2013-09-24 21:38:00,
2013-09-24 16:43:00,74.8,61.4,29.79,West,274,1.2,3.5,63,0.00,,,0.02,WeatherDisplay:10.37,2013-09-24 21:43:00,
2013-09-24 16:48:00,74.5,61.1,29.78,WNW,302,1.3,3.5,63,0.00,,,0.02,WeatherDisplay:10.37,2013-09-24 21:48:00,
2013-09-24 16:53:00,74.1,60.7,29.78,WSW,255,1.5,3.5,63,0.00,,,0.02,WeatherDisplay:10.37,2013-09-24 21:53:00,
2013-09-24 16:58:00,73.8,60.0,29.79,West,280,2.7,9.2,62,0.00,,,0.02,WeatherDisplay:10.37,2013-09-24 21:58:00,
2013-09-24 17:03:00,73.6,60.7,29.79,WNW,299,1.4,2.3,64,0.00,,,0.02,WeatherDisplay:10.37,2013-09-24 22:03:00,
2013-09-24 17:08:00,73.6,61.1,29.79,WNW,300,1.6,3.5,65,0.00,,,0.02,WeatherDisplay:10.37,2013-09-24 22:08:00,
2013-09-24 17:13:00,74.0,60.6,29.79,West,266,0.5,2.3,63,0.00,,,0.02,WeatherDisplay:10.37,2013-09-24 22:13:00,
2013-09-24 17:18:00,74.2,59.9,29.79,WNW,297,3.8,4.6,61,0.00,,,0.02,WeatherDisplay:10.37,2013-09-24 22:18:00,
2013-09-24 17:23:00,73.7,60.3,29.79,WNW,291,2.6,5.0,63,0.00,,,0.02,WeatherDisplay:10.37,2013-09-24 22:23:00,
2013-09-24 17:28:00,73.4,60.9,29.79,West,281,0.8,2.3,65,0.00,,,0.02,WeatherDisplay:10.37,2013-09-24 22:28:00,
2013-09-24 17:33:00,73.0,60.5,29.79,WNW,285,1.0,3.5,65,0.00,,,0.02,WeatherDisplay:10.37,2013-09-24 22:33:00,
2013-09-24 17:38:00,72.8,60.3,29.79,West,274,0.7,2.3,65,0.00,,,0.02,WeatherDisplay:10.37,2013-09-24 22:38:00,
2013-09-24 17:43:00,72.6,60.6,29.79,WNW,283,0.3,1.1,66,0.00,,,0.02,WeatherDisplay:10.37,2013-09-24 22:43:00,
2013-09-24 17:48:00,72.5,60.9,29.79,WNW,282,0.9,2.3,67,0.00,,,0.02,WeatherDisplay:10.37,2013-09-24 22:48:00,
2013-09-24 17:53:00,72.4,60.4,29.79,West,266,1.4,5.8,66,0.00,,,0.02,WeatherDisplay:10.37,2013-09-24 22:53:00,
2013-09-24 17:58:00,72.8,61.2,29.79,WNW,284,2.2,3.5,67,0.00,,,0.02,WeatherDisplay:10.37,2013-09-24 22:58:00,
2013-09-24 18:03:00,72.8,60.3,29.79,WNW,300,1.0,5.8,65,0.00,,,0.02,WeatherDisplay:10.37,2013-09-24 23:03:00,
2013-09-24 18:08:00,72.9,60.4,29.79,WNW,297,1.6,3.5,65,0.00,,,0.02,WeatherDisplay:10.37,2013-09-24 23:08:00,
2013-09-24 18:13:00,72.8,60.8,29.79,WNW,293,2.2,2.3,66,0.00,,,0.02,WeatherDisplay:10.37,2013-09-24 23:13:00,
2013-09-24 18:19:00,72.6,60.6,29.79,West,263,1.0,2.3,66,0.00,,,0.02,WeatherDisplay:10.37,2013-09-24 23:19:00,
2013-09-24 18:24:00,72.2,60.2,29.79,WNW,282,1.9,3.5,66,0.00,,,0.02,WeatherDisplay:10.37,2013-09-24 23:24:00,
2013-09-24 18:29:00,71.8,60.7,29.79,West,274,0.5,1.1,68,0.00,,,0.02,WeatherDisplay:10.37,2013-09-24 23:29:00,
2013-09-24 18:34:00,71.5,60.4,29.80,West,276,0.4,1.1,68,0.00,,,0.02,WeatherDisplay:10.37,2013-09-24 23:34:00,
2013-09-24 18:39:00,71.2,60.5,29.79,West,280,0.1,1.1,69,0.00,,,0.02,WeatherDisplay:10.37,2013-09-24 23:39:00,
2013-09-24 18:44:00,71.3,60.6,29.79,West,280,0.0,1.1,69,0.00,,,0.02,WeatherDisplay:10.37,2013-09-24 23:44:00,
2013-09-24 18:49:00,71.2,60.9,29.79,West,280,0.0,0.0,70,0.00,,,0.02,WeatherDisplay:10.37,2013-09-24 23:49:00,
2013-09-24 18:54:00,70.7,60.4,29.79,West,280,0.2,1.1,70,0.00,,,0.02,WeatherDisplay:10.37,2013-09-24 23:54:00,
2013-09-24 18:59:00,70.4,60.5,29.79,West,278,0.0,0.0,71,0.00,,,0.02,WeatherDisplay:10.37,2013-09-24 23:59:00,
2013-09-24 19:04:00,70.1,60.3,29.79,West,280,0.0,0.0,71,0.00,,,0.02,WeatherDisplay:10.37,2013-09-25 00:04:00,
2013-09-24 19:09:00,69.8,60.0,29.79,West,274,0.4,1.1,71,0.00,,,0.02,WeatherDisplay:10.37,2013-09-25 00:09:00,
2013-09-24 19:14:00,69.8,60.0,29.79,WNW,290,0.8,2.3,71,0.00,,,0.02,WeatherDisplay:10.37,2013-09-25 00:14:00,
2013-09-24 19:19:00,69.7,60.3,29.79,WNW,288,0.0,0.0,72,0.00,,,0.02,WeatherDisplay:10.37,2013-09-25 00:19:00,
2013-09-24 19:24:00,69.5,60.1,29.79,WNW,288,0.1,0.0,72,0.00,,,0.02,WeatherDisplay:10.37,2013-09-25 00:24:00,
2013-09-24 19:29:00,69.0,60.4,29.79,WNW,288,0.0,0.0,74,0.00,,,0.02,WeatherDisplay:10.37,2013-09-25 00:29:00,
2013-09-24 19:34:00,68.5,60.3,29.79,WNW,288,0.0,0.0,75,0.00,,,0.02,WeatherDisplay:10.37,2013-09-25 00:34:00,
2013-09-24 19:39:00,68.1,60.2,29.79,WNW,288,0.0,1.0,76,0.00,,,0.02,WeatherDisplay:10.37,2013-09-25 00:39:00,
2013-09-24 19:44:00,67.9,60.1,29.79,WNW,287,0.0,1.1,76,0.00,,,0.02,WeatherDisplay:10.37,2013-09-25 00:44:00,
2013-09-24 19:49:00,67.8,60.0,29.79,WNW,287,0.0,1.1,76,0.00,,,0.02,WeatherDisplay:10.37,2013-09-25 00:49:00,
2013-09-24 19:54:00,67.5,59.7,29.79,WNW,288,0.0,0.0,76,0.00,,,0.02,WeatherDisplay:10.37,2013-09-25 00:54:00,
2013-09-24 19:59:00,67.1,59.6,29.78,WNW,287,0.0,1.1,77,0.00,,,0.02,WeatherDisplay:10.37,2013-09-25 00:59:00,
2013-09-24 20:04:00,67.1,59.6,29.78,WNW,288,0.0,1.1,77,0.00,,,0.02,WeatherDisplay:10.37,2013-09-25 01:04:00,
2013-09-24 20:09:00,66.9,59.8,29.79,WNW,288,0.0,0.0,78,0.00,,,0.02,WeatherDisplay:10.37,2013-09-25 01:09:00,
2013-09-24 20:14:00,66.7,59.6,29.79,WNW,288,0.0,0.0,78,0.00,,,0.02,WeatherDisplay:10.37,2013-09-25 01:14:00,
2013-09-24 20:19:00,66.5,59.8,29.79,WNW,288,0.0,0.0,79,0.00,,,0.02,WeatherDisplay:10.37,2013-09-25 01:19:00,
2013-09-24 20:24:00,66.3,59.6,29.79,WNW,288,0.0,0.0,79,0.00,,,0.02,WeatherDisplay:10.37,2013-09-25 01:24:00,
2013-09-24 20:29:00,66.2,59.5,29.79,WNW,288,0.0,0.0,79,0.00,,,0.02,WeatherDisplay:10.37,2013-09-25 01:29:00,
2013-09-24 20:34:00,66.0,59.7,29.79,WNW,288,0.0,0.0,80,0.00,,,0.02,WeatherDisplay:10.37,2013-09-25 01:34:00,
2013-09-24 20:39:00,65.8,59.5,29.79,WNW,288,0.0,0.0,80,0.00,,,0.02,WeatherDisplay:10.37,2013-09-25 01:39:00,
2013-09-24 20:44:00,65.7,59.4,29.79,WNW,288,0.0,0.0,80,0.00,,,0.02,WeatherDisplay:10.37,2013-09-25 01:44:00,
2013-09-24 20:49:00,65.6,59.3,29.79,WNW,288,0.0,0.0,80,0.00,,,0.02,WeatherDisplay:10.37,2013-09-25 01:49:00,
2013-09-24 20:54:00,65.6,59.3,29.79,WNW,288,0.0,0.0,80,0.00,,,0.02,WeatherDisplay:10.37,2013-09-25 01:54:00,
2013-09-24 20:59:00,65.4,59.1,29.79,WNW,288,0.0,0.0,80,0.00,,,0.02,WeatherDisplay:10.37,2013-09-25 01:59:00,
2013-09-24 21:04:00,65.2,59.2,29.79,WNW,288,0.0,0.0,81,0.00,,,0.02,WeatherDisplay:10.37,2013-09-25 02:04:00,
2013-09-24 21:09:00,64.8,58.8,29.79,WNW,288,0.0,0.0,81,0.00,,,0.02,WeatherDisplay:10.37,2013-09-25 02:09:00,
2013-09-24 21:15:00,64.5,59.2,29.79,WNW,288,0.0,0.0,83,0.00,,,0.02,WeatherDisplay:10.37,2013-09-25 02:15:00,
2013-09-24 21:20:00,64.1,59.2,29.79,WNW,288,0.0,0.0,84,0.00,,,0.02,WeatherDisplay:10.37,2013-09-25 02:20:00,
2013-09-24 21:25:00,63.5,58.9,29.79,WNW,288,0.0,0.0,85,0.00,,,0.02,WeatherDisplay:10.37,2013-09-25 02:25:00,
2013-09-24 21:30:00,63.0,58.7,29.79,WNW,288,0.0,0.0,86,0.00,,,0.02,WeatherDisplay:10.37,2013-09-25 02:30:00,
2013-09-24 21:35:00,62.6,58.7,29.79,WNW,288,0.0,0.0,87,0.00,,,0.02,WeatherDisplay:10.37,2013-09-25 02:35:00,
2013-09-24 21:40:00,62.2,58.6,29.79,WNW,288,0.0,0.0,88,0.00,,,0.02,WeatherDisplay:10.37,2013-09-25 02:40:00,
2013-09-24 21:45:00,62.3,59.0,29.79,West,277,0.0,0.0,89,0.00,,,0.02,WeatherDisplay:10.37,2013-09-25 02:45:00,
2013-09-24 21:50:00,62.2,59.2,29.79,West,277,0.0,0.0,90,0.00,,,0.02,WeatherDisplay:10.37,2013-09-25 02:50:00,
2013-09-24 21:55:00,62.2,59.2,29.79,West,277,0.0,0.0,90,0.00,,,0.02,WeatherDisplay:10.37,2013-09-25 02:55:00,
2013-09-24 22:00:00,62.2,59.2,29.79,West,276,0.0,0.0,90,0.00,,,0.02,WeatherDisplay:10.37,2013-09-25 03:00:00,
2013-09-24 22:05:00,62.2,59.2,29.79,West,277,0.0,0.0,90,0.00,,,0.02,WeatherDisplay:10.37,2013-09-25 03:05:00,
2013-09-24 22:10:00,62.1,59.1,29.80,West,277,0.0,0.0,90,0.00,,,0.02,WeatherDisplay:10.37,2013-09-25 03:10:00,
2013-09-24 22:15:00,61.9,59.2,29.79,West,277,0.0,0.0,91,0.00,,,0.02,WeatherDisplay:10.37,2013-09-25 03:15:00,
2013-09-24 22:20:00,61.9,59.2,29.80,West,277,0.0,0.0,91,0.00,,,0.02,WeatherDisplay:10.37,2013-09-25 03:20:00,
2013-09-24 22:25:00,62.0,59.0,29.80,West,276,0.0,0.0,90,0.00,,,0.02,WeatherDisplay:10.37,2013-09-25 03:25:00,
2013-09-24 22:30:00,62.3,59.0,29.80,West,278,0.4,1.1,89,0.00,,,0.02,WeatherDisplay:10.37,2013-09-25 03:30:00,
2013-09-24 22:35:00,62.7,58.8,29.80,West,276,1.0,1.1,87,0.00,,,0.02,WeatherDisplay:10.37,2013-09-25 03:35:00,
2013-09-24 22:40:00,63.0,58.7,29.79,WNW,286,0.9,1.1,86,0.00,,,0.02,WeatherDisplay:10.37,2013-09-25 03:40:00,
2013-09-24 22:45:00,63.1,58.8,29.79,WNW,286,1.0,2.3,86,0.00,,,0.02,WeatherDisplay:10.37,2013-09-25 03:45:00,
2013-09-24 22:50:00,63.3,58.7,29.80,WNW,283,1.0,1.1,85,0.00,,,0.02,WeatherDisplay:10.37,2013-09-25 03:50:00,
2013-09-24 22:55:00,63.2,58.6,29.80,WNW,291,0.9,2.0,85,0.00,,,0.02,WeatherDisplay:10.37,2013-09-25 03:55:00,
2013-09-24 23:00:00,63.1,58.5,29.79,West,280,1.3,2.3,85,0.00,,,0.02,WeatherDisplay:10.37,2013-09-25 04:00:00,
2013-09-24 23:01:00,63.1,58.5,29.79,West,270,1.4,2.3,85,0.00,,,0.02,WeatherDisplay:10.37,2013-09-25 04:01:00,
2013-09-24 23:02:00,63.1,58.5,29.80,WNW,294,1.2,2.3,85,0.00,,,0.02,WeatherDisplay:10.37,2013-09-25 04:02:00,
2013-09-24 23:07:00,62.9,58.3,29.80,WNW,288,1.0,2.3,85,0.00,,,0.02,WeatherDisplay:10.37,2013-09-25 04:07:00,
2013-09-24 23:12:00,62.7,58.5,29.80,WNW,288,1.2,2.3,86,0.00,,,0.02,WeatherDisplay:10.37,2013-09-25 04:12:00,
2013-09-24 23:17:00,62.6,58.4,29.80,NW,307,1.8,3.5,86,0.00,,,0.02,WeatherDisplay:10.37,2013-09-25 04:17:00,
2013-09-24 23:22:00,62.6,58.0,29.80,WNW,295,0.9,1.1,85,0.00,,,0.02,WeatherDisplay:10.37,2013-09-25 04:22:00,
2013-09-24 23:27:00,62.3,58.1,29.80,WNW,287,0.9,1.1,86,0.00,,,0.02,WeatherDisplay:10.37,2013-09-25 04:27:00,
2013-09-24 23:32:00,62.2,58.0,29.80,WNW,290,0.6,2.3,86,0.00,,,0.02,WeatherDisplay:10.37,2013-09-25 04:32:00,
2013-09-24 23:37:00,62.2,58.0,29.80,NW,314,1.3,2.3,86,0.00,,,0.02,WeatherDisplay:10.37,2013-09-25 04:37:00,
2013-09-24 23:42:00,62.3,58.1,29.80,WNW,295,0.8,1.1,86,0.00,,,0.02,WeatherDisplay:10.37,2013-09-25 04:42:00,
2013-09-24 23:47:00,62.2,58.0,29.80,NW,315,1.4,2.3,86,0.00,,,0.02,WeatherDisplay:10.37,2013-09-25 04:47:00,
2013-09-24 23:52:00,62.1,57.9,29.80,WNW,291,1.8,3.5,86,0.00,,,0.02,WeatherDisplay:10.37,2013-09-25 04:52:00,
2013-09-24 23:57:00,62.0,57.8,29.80,NW,305,1.4,3.5,86,0.00,,,0.02,WeatherDisplay:10.37,2013-09-25 04:57:00,